This demonstration page uses our WeatherBlox Daily Observations layout. Learn more.

Left ArrowRight Arrow

39.92423, -83.80882

Hourly Observations for August 24, 2016

Temp ( °F °C ) Dew Point ( °F °C ) Humidity (%) Winds ( mph kmh ) Pressure ( in mb ) Visibility ( mi km ) Precip ( " mm )
12:56 am 00:56 Clear 65 18.3 60 15.6 84 84 SSE 7 11 30.21 1023 10 16.0934 N/A
1:56 am 01:56 Clear 64 17.8 59 15 84 84 undefined N/A 30.21 1023 10 16.0934 N/A
2:56 am 02:56 Clear 65 18.3 60 15.6 84 84 SSE 7 11 30.19 1023 10 16.0934 N/A
3:56 am 03:56 Clear 65 18.3 60 15.6 84 84 undefined N/A 30.19 1022 10 16.0934 N/A
4:56 am 04:56 Clear 65 18.3 60 15.6 84 84 undefined N/A N/A 10 16.0934 N/A
5:56 am 05:56 Clear 65 18.3 60 15.6 84 84 S 3 6 30.19 1022 10 16.0934 N/A
6:56 am 06:56 Clear 64 17.8 60 15.6 87 87 undefined N/A 30.2 1023 10 16.0934 N/A
7:56 am 07:56 Sunny 65 18.3 62 16.7 90 90 SSE 5 7 N/A 10 16.0934 N/A
8:56 am 08:56 Sunny 67 19.4 63 17.2 87 87 SSE 6 9 30.2 1023 10 16.0934 N/A
9:56 am 09:56 Sunny 70 21.1 64 17.8 82 82 S 6 9 30.19 1023 10 16.0934 N/A
10:56 am 10:56 undefined N/A N/A N/A undefined N/A N/A N/A N/A
11:56 am 11:56 undefined N/A N/A N/A undefined N/A N/A N/A N/A
12:36 pm 12:36 Cloudy 75 24 68 20 78 78 S 5 7 30.18 1022 10 16.0934 N/A
12:56 pm 12:56 Mostly Cloudy 76 24.4 69 20.6 79 79 S 7 11 30.16 1021 10 16.0934 N/A
1:14 pm 13:14 Partly Cloudy 79 26 72 22 79 79 S 9 15 30.15 1021 10 16.0934 N/A
1:56 pm 13:56 Mostly Sunny 80 26.7 72 22.2 76 76 SSW 10 17 30.14 1021 10 16.0934 N/A
2:32 pm 14:32 Mostly Cloudy 81 27 73 23 79 79 SSW 9 15 30.09 1019 10 16.0934 N/A
2:56 pm 14:56 Mostly Cloudy 80 26.7 72 22.2 76 76 S 9 15 30.11 1020 10 16.0934 N/A
3:04 pm 15:04 Mostly Cloudy 81 27 73 23 79 79 S 6 9 30.09 1019 10 16.0934 N/A
3:43 pm 15:43 Mostly Cloudy 81 27 73 23 79 79 SSE 10 17 30.06 1018 10 16.0934 N/A
3:56 pm 15:56 Cloudy 80 26.7 73 22.8 79 79 S 8 13 30.1 1019 10 16.0934 N/A
4:37 pm 16:37 Partly Cloudy 81 27 73 23 79 79 S 9 15 30.06 1018 10 16.0934 N/A
4:49 pm 16:49 Mostly Cloudy 81 27 73 23 79 79 S 5 7 30.06 1018 10 16.0934 N/A
4:56 pm 16:56 Mostly Cloudy 80 26.7 74 23.3 82 82 SSW 6 9 30.09 1019 10 16.0934 N/A
5:26 pm 17:26 Partly Cloudy 81 27 73 23 79 79 S 8 13 30.06 1018 10 16.0934 N/A
5:56 pm 17:56 Sunny 79 26.1 73 22.8 82 82 S 8 13 30.07 1018 10 16.0934 N/A
6:56 pm 18:56 Mostly Cloudy with Light Rain 78 25.6 73 22.8 85 85 S 10 17 30.05 1018 10 16.0934 N/A
7:56 pm 19:56 Sunny with Light Rain 77 25 73 22.8 88 88 S 9 15 30.04 1017 10 16.0934 N/A
8:56 pm 20:56 Clear 76 24.4 73 22.8 91 91 S 7 11 30.05 1018 10 16.0934 N/A
9:56 pm 21:56 Mostly Cloudy 76 24.4 73 22.8 91 91 S 6 9 30.04 1017 10 16.0934 N/A
10:56 pm 22:56 Mostly Cloudy 76 24.4 72 22.2 88 88 S 7 11 30.03 1017 10 16.0934 N/A
11:56 pm 23:56 Cloudy 76 24.4 72 22.2 88 88 SSW 8 13 30.03 1017 10 16.0934 N/A

Powered by AerisWeather